Date_and_time,latitude,longitude,wind_speed,RelWindDirFrom,WindDirFrom,air_pressure,air_temperature,relative_humidity,Temp,platform_speed_wrt_ground,air_pressure_at_mean_sea_level,platform_orientation
2018-05-19 23:40,50.630455,-96.98078,1.2,2.0,123,994.69,15.0,39,10.25,0.0,1021.30,240.8
2018-05-19 23:50,50.63044,-96.9807633333333,1.6,2.9,172,994.67,13.3,46,10.28,0.0,1021.40,240.8
2018-05-20 00:00,50.6304383333333,-96.980755,2.0,4.6,85,994.59,14.2,40,10.22,0.0,1021.30,90.0
2018-05-20 00:10,50.6304583333333,-96.980775,3.2,4.5,77,994.52,14.0,44,10.24,0.0,1021.22,90.0
2018-05-20 00:20,50.63045,-96.9807716666667,4.0,5.4,69,994.53,13.0,49,10.32,0.0,1021.25,90.0
2018-05-20 00:30,50.63045,-96.9807683333333,5.2,6.1,75,994.51,12.8,52,10.48,0.0,1021.27,90.0
2018-05-20 00:40,50.63045,-96.9807666666667,4.0,5.6,81,994.51,13.1,52,10.58,0.0,1021.28,90.0
2018-05-20 00:50,50.6304316666667,-96.9807683333333,1.7,3.2,109,994.58,13.7,51,10.66,0.0,1021.34,90.0
2018-05-20 01:00,50.63045,-96.98077,1.8,4.0,119,994.58,13.6,52,10.64,0.0,1021.32,356.8
2018-05-20 01:10,50.6304533333333,-96.980745,2.7,4.3,102,994.58,13.8,47,10.55,0.0,1021.27,356.8
2018-05-20 01:20,50.63045,-96.9807616666667,2.5,3.7,111,994.56,13.7,47,10.62,0.0,1021.21,356.8
2018-05-20 01:30,50.63045,-96.9807633333333,4.3,5.1,83,994.45,13.4,49,10.55,0.0,1021.10,356.8
2018-05-20 01:40,50.630455,-96.9807583333333,1.6,4.1,55,994.54,12.3,55,10.57,0.0,1021.32,356.8
2018-05-20 01:50,50.630455,-96.9807566666667,1.4,3.5,74,994.62,12.3,48,10.53,0.0,1021.36,356.8
2018-05-20 02:00,50.6304466666667,-96.98076,1.9,3.4,86,994.71,12.5,45,10.50,0.0,1021.45,48.4
2018-05-20 02:10,50.6304433333333,-96.9807566666667,0.2,1.3,70,994.79,12.5,44,10.57,0.0,1021.59,48.4
2018-05-20 02:20,50.6304516666667,-96.9807766666667,1.6,2.7,13,994.78,12.2,46,10.53,0.0,1021.59,48.4
2018-05-20 02:30,50.6304366666667,-96.9807566666667,2.5,3.1,10,994.84,12.1,48,10.35,0.0,1021.64,48.4
2018-05-20 02:40,50.630435,-96.980765,1.2,2.3,351,994.98,12.0,47,10.25,0.0,1021.77,48.4
2018-05-20 02:50,50.6304066666667,-96.980765,1.1,2.1,345,995.09,11.9,44,10.15,0.0,1021.89,48.4
2018-05-20 03:00,50.6304316666667,-96.98076,0.5,1.4,298,995.12,11.8,43,10.07,0.0,1021.92,360.0
2018-05-20 03:10,50.6304316666667,-96.9807616666667,0.9,2.4,311,995.10,11.7,45,10.02,0.0,1021.91,360.0
2018-05-20 03:20,50.6304316666667,-96.9807633333333,0.4,2.2,67,995.06,11.6,41,9.99,0.0,1021.88,360.0
2018-05-20 03:30,50.630435,-96.9807633333333,1.9,3.4,225,995.02,10.9,46,9.96,0.0,1021.93,360.0
2018-05-20 03:40,50.6304366666667,-96.9807633333333,2.6,3.4,237,995.00,10.1,46,10.05,0.0,1021.95,360.0
2018-05-20 03:50,50.6304383333333,-96.9807633333333,1.7,2.7,221,994.98,10.2,44,10.15,0.0,1021.91,360.0
2018-05-20 04:00,50.6304383333333,-96.980765,2.1,2.9,237,995.02,10.3,42,10.12,0.0,1021.94,360.0
2018-05-20 04:10,50.63044,-96.9807633333333,3.2,4.1,242,994.99,10.0,45,10.25,0.0,1021.95,360.0
2018-05-20 04:20,50.6304433333333,-96.9807533333333,3.2,4.2,245,994.95,9.4,47,10.33,0.0,1021.94,360.0
2018-05-20 04:30,50.63045,-96.980755,3.3,4.6,262,994.94,9.3,48,10.38,0.0,1021.94,360.0
2018-05-20 04:40,50.6304316666667,-96.9807516666667,3.2,4.3,258,994.98,9.0,51,10.41,0.0,1022.00,360.0
2018-05-20 04:50,50.6304383333333,-96.98076,3.6,4.5,249,994.98,8.6,50,10.36,0.0,1022.02,360.0
2018-05-20 05:00,50.6304366666667,-96.98076,4.2,5.3,245,994.98,8.4,49,10.31,0.0,1022.04,360.0
2018-05-20 05:10,50.6304366666667,-96.9807533333333,5.2,6.2,238,994.95,8.6,49,10.22,0.0,1022.00,360.0
2018-05-20 05:20,50.6304366666667,-96.980755,4.7,5.3,234,994.92,8.2,50,10.15,0.0,1022.02,360.0
2018-05-20 05:30,50.6304366666667,-96.9807566666667,5.0,5.9,223,994.84,8.3,48,10.16,0.0,1021.98,360.0
2018-05-20 05:40,50.6304366666667,-96.980755,4.4,4.9,233,994.87,8.6,46,10.13,0.0,1021.98,360.0
2018-05-20 05:50,50.6304366666667,-96.9807533333333,4.7,5.5,235,994.88,8.7,45,10.21,0.0,1021.98,360.0
2018-05-20 06:00,50.6304383333333,-96.980755,4.7,5.5,233,994.82,8.5,46,10.24,0.0,1021.94,360.0
2018-05-20 06:10,50.6304383333333,-96.9807533333333,4.8,6.1,238,994.81,8.4,45,10.24,0.0,1021.97,360.0
2018-05-20 06:20,50.63044,-96.9807533333333,4.6,5.9,238,994.88,8.6,45,10.27,0.0,1022.05,360.0
2018-05-20 06:30,50.6304383333333,-96.9807533333333,4.6,5.4,243,994.90,8.4,45,10.20,0.0,1022.08,360.0
2018-05-20 06:40,50.6304383333333,-96.9807516666667,4.7,5.8,243,994.88,8.3,46,10.25,0.0,1022.09,360.0
2018-05-20 06:50,50.6304383333333,-96.9807533333333,4.2,5.5,239,994.84,8.1,47,10.28,0.0,1022.07,360.0
2018-05-20 07:00,50.6304533333333,-96.9807716666667,4.2,5.4,242,994.83,7.8,49,10.26,0.0,1022.06,318.7
2018-05-20 07:10,50.6304433333333,-96.9807516666667,4.7,6.5,243,994.81,7.2,52,10.21,0.0,1022.09,318.7
2018-05-20 07:20,50.6304716666667,-96.9807816666667,5.0,6.3,243,994.80,7.1,52,10.02,0.0,1022.09,318.7
2018-05-20 07:30,50.63042,-96.9807533333333,5.8,7.1,240,994.79,6.9,53,10.02,0.0,1022.07,318.7
2018-05-20 07:40,50.63043,-96.9807583333333,5.6,6.7,240,994.79,6.6,54,10.15,0.0,1022.07,318.7
2018-05-20 07:50,50.6304333333333,-96.9807566666667,5.4,6.9,241,994.82,6.5,55,10.12,0.0,1022.12,318.7
2018-05-20 08:00,50.630435,-96.9807583333333,5.2,7.7,243,994.80,6.1,57,10.17,0.0,1022.12,0.0
2018-05-20 08:10,50.630435,-96.9807583333333,6.3,8.0,243,994.72,5.9,58,10.16,0.0,1022.04,0.0
2018-05-20 08:20,50.6304483333333,-96.98076,5.8,7.0,238,994.67,5.8,58,10.29,0.0,1022.01,0.0
2018-05-20 08:30,50.6304283333333,-96.9807416666667,5.7,7.7,231,994.66,5.5,60,10.57,0.0,1022.01,0.0
2018-05-20 08:40,50.63043,-96.9807466666667,6.4,8.1,228,994.73,5.7,61,10.67,0.0,1022.09,0.0
2018-05-20 08:50,50.6304266666667,-96.9807516666667,7.1,8.9,231,994.71,6.2,59,10.71,0.0,1022.06,0.0
2018-05-20 09:00,50.6304283333333,-96.9807516666667,7.2,9.3,232,994.64,6.5,58,10.73,0.0,1022.00,360.0
2018-05-20 09:10,50.63043,-96.980755,6.2,7.7,235,994.57,6.4,58,10.73,0.0,1021.93,360.0
2018-05-20 09:20,50.63043,-96.9807533333333,6.0,7.2,238,994.55,6.2,59,10.72,0.0,1021.94,360.0
2018-05-20 09:30,50.630425,-96.9807616666667,6.5,8.0,241,994.49,6.1,59,10.64,0.0,1021.90,360.0
2018-05-20 09:40,50.630435,-96.9807516666667,6.3,7.7,240,994.47,6.2,58,10.65,0.0,1021.88,360.0
2018-05-20 09:50,50.6304016666667,-96.980735,5.8,8.1,244,994.53,6.3,58,10.63,0.0,1021.95,360.0
2018-05-20 10:00,50.6304316666667,-96.9807416666667,6.2,8.0,244,994.57,6.2,59,10.58,0.0,1022.01,136.8
2018-05-20 10:10,50.6304316666667,-96.9807466666667,5.9,7.2,240,994.56,6.1,60,10.57,0.0,1022.01,136.8
2018-05-20 10:20,50.6304383333333,-96.9807433333333,5.4,6.7,239,994.51,6.0,60,10.48,0.0,1021.97,136.8
2018-05-20 10:30,50.6304383333333,-96.98075,4.8,6.2,237,994.49,5.9,61,10.48,0.0,1021.94,136.8
2018-05-20 10:40,50.630435,-96.9807533333333,4.4,5.7,235,994.54,6.0,61,10.50,0.0,1021.97,136.8
2018-05-20 10:50,50.6304316666667,-96.9807533333333,4.2,5.8,227,994.55,6.3,61,10.47,0.0,1021.95,136.8
2018-05-20 11:00,50.6304333333333,-96.9807533333333,4.9,6.7,230,994.54,6.5,60,10.49,0.0,1021.93,131.7
2018-05-20 11:10,50.6304316666667,-96.9807533333333,6.5,8.3,234,994.57,6.8,57,10.42,0.0,1021.96,131.7
2018-05-20 11:20,50.6304333333333,-96.9807533333333,6.4,7.8,238,994.59,6.9,56,10.38,0.0,1021.98,131.7
2018-05-20 11:30,50.630435,-96.9807533333333,5.7,6.9,239,994.57,7.0,56,10.38,0.0,1021.95,131.7
2018-05-20 11:40,50.6304333333333,-96.9807533333333,7.0,10.8,239,994.53,7.9,53,10.35,0.0,1021.86,131.7
2018-05-20 11:50,50.630435,-96.9807533333333,8.3,10.4,240,994.52,9.2,50,10.36,0.0,1021.79,131.7
2018-05-20 12:00,50.630435,-96.9807533333333,7.0,9.4,244,994.53,9.9,49,10.38,0.0,1021.77,360.0
2018-05-20 12:10,50.63044,-96.9808083333333,7.4,10.6,243,994.56,10.4,48,10.39,0.0,1021.78,360.0
2018-05-20 12:20,50.6304383333333,-96.9807666666667,7.9,11.1,241,994.59,10.9,48,10.38,0.0,1021.79,360.0
2018-05-20 12:30,50.6304416666667,-96.9807633333333,8.5,11.4,244,994.58,11.4,47,10.37,0.0,1021.76,360.0
2018-05-20 12:40,50.6304433333333,-96.980765,7.9,10.7,242,994.61,11.7,46,10.38,0.0,1021.75,360.0
2018-05-20 12:50,50.6304416666667,-96.9807616666667,8.2,11.5,245,994.60,12.2,45,10.38,0.0,1021.72,360.0
2018-05-20 13:00,50.6304416666667,-96.9807616666667,8.6,11.7,247,994.56,12.7,44,10.39,0.0,1021.63,311.7
2018-05-20 13:10,50.6304433333333,-96.9807666666667,9.0,12.7,243,994.52,13.2,42,10.39,0.0,1021.56,311.7
2018-05-20 13:20,50.6304416666667,-96.980765,8.6,11.1,245,994.40,13.7,40,10.39,0.0,1021.41,311.7
2018-05-20 13:30,50.6304416666667,-96.9807616666667,7.6,10.7,249,994.30,14.5,38,10.40,0.0,1021.23,311.7
2018-05-20 13:40,50.6304333333333,-96.9807633333333,7.0,11.0,249,994.26,15.1,36,10.41,0.0,1021.09,311.7
2018-05-20 13:50,50.6304416666667,-96.980765,7.9,11.7,252,994.21,15.8,34,10.43,0.0,1020.97,311.7
2018-05-20 14:00,50.63044,-96.9807616666667,7.8,10.8,245,994.19,16.5,32,10.46,0.0,1020.91,345.5
2018-05-20 14:10,50.6304416666667,-96.9807616666667,7.9,11.3,252,994.25,17.1,30,10.48,0.0,1020.90,345.5
2018-05-20 14:20,50.63044,-96.980755,5.5,9.4,266,994.19,17.7,29,10.51,0.0,1020.80,345.5
2018-05-20 14:30,50.6304166666667,-96.98074,5.9,8.7,266,994.20,18.3,28,10.53,0.0,1020.76,345.5
2018-05-20 14:40,50.6304416666667,-96.9807483333333,6.3,10.7,260,994.21,18.7,27,10.57,0.0,1020.74,345.5
2018-05-20 14:50,50.6304416666667,-96.9807533333333,4.9,7.5,271,994.18,19.2,26,10.60,0.0,1020.66,345.5
2018-05-20 15:00,50.6304416666667,-96.9807533333333,3.8,8.8,258,994.16,19.7,25,10.65,0.0,1020.59,38.0
2018-05-20 15:10,50.6304416666667,-96.9807533333333,3.7,7.7,260,994.16,20.0,25,10.70,0.0,1020.55,38.0
2018-05-20 15:20,50.63044,-96.980755,3.1,7.2,233,994.17,20.3,25,10.62,0.0,1020.51,38.0
2018-05-20 15:30,50.6304383333333,-96.980755,4.7,8.8,262,994.13,20.8,23,10.36,0.0,1020.42,38.0
2018-05-20 15:40,50.6304383333333,-96.980755,4.1,8.3,258,994.06,21.0,23,10.21,0.0,1020.31,38.0
2018-05-20 15:50,50.63044,-96.980755,3.6,8.4,257,994.05,21.4,22,10.12,0.0,1020.25,38.0
2018-05-20 16:00,50.6304433333333,-96.9807783333333,1.4,5.6,105,994.00,20.5,30,9.98,0.0,1020.21,270.0
2018-05-20 16:10,50.63044,-96.9807683333333,5.0,7.6,124,993.88,18.5,38,9.81,0.0,1020.15,270.0
2018-05-20 16:20,50.6304416666667,-96.98077,8.0,10.0,125,993.81,17.1,45,9.70,0.0,1020.12,270.0
2018-05-20 16:30,50.6304416666667,-96.9807766666667,8.5,10.2,126,993.86,16.0,51,9.67,0.0,1020.20,270.0
2018-05-20 16:40,50.6304383333333,-96.98077,8.9,11.4,126,993.82,15.0,57,9.76,0.0,1020.18,270.0
2018-05-20 16:50,50.63044,-96.980765,8.7,11.2,130,993.81,14.4,60,9.81,0.0,1020.17,270.0
2018-05-20 17:00,50.6304383333333,-96.9807666666667,8.7,12.5,126,993.76,15.2,56,9.91,0.0,1020.07,270.0
2018-05-20 17:10,50.6304383333333,-96.9807666666667,10.5,13.8,128,993.68,15.0,56,9.92,0.0,1019.99,270.0
2018-05-20 17:20,50.6304383333333,-96.980765,7.3,13.3,137,993.61,15.9,46,9.89,0.0,1019.85,270.0
2018-05-20 17:30,50.6304383333333,-96.9807633333333,10.3,15.2,136,993.56,17.0,40,9.78,0.0,1019.74,270.0
2018-05-20 17:40,50.6304383333333,-96.9807633333333,12.2,17.9,136,993.36,16.9,44,9.73,0.0,1019.52,270.0
2018-05-20 17:50,50.6304366666667,-96.9807633333333,7.2,13.1,128,993.46,17.0,40,9.74,0.0,1019.66,270.0
2018-05-20 18:00,50.6304366666667,-96.9807633333333,13.8,16.9,122,993.25,17.4,42,9.92,0.0,1019.52,240.8
2018-05-20 18:10,50.6304366666667,-96.9807933333333,8.6,14.8,127,993.23,17.7,36,10.10,0.0,1019.54,240.8
2018-05-20 18:20,50.6304383333333,-96.9807666666667,10.2,13.2,126,993.24,18.1,41,10.10,0.0,1019.59,240.8
2018-05-20 18:30,50.6304383333333,-96.9807666666667,9.2,13.3,119,993.20,17.2,44,10.06,0.0,1019.64,240.8
2018-05-20 18:40,50.6304383333333,-96.980765,5.4,13.4,136,993.21,16.9,45,10.03,0.0,1019.69,240.8
2018-05-20 18:50,50.6304383333333,-96.9807633333333,11.2,15.7,127,993.03,17.3,41,10.01,0.0,1019.45,240.8
2018-05-20 19:00,50.630445,-96.9807516666667,8.5,12.9,138,992.97,17.6,36,10.00,0.0,1019.39,90.0
2018-05-20 19:10,50.6304416666667,-96.980755,9.5,12.9,120,992.84,18.6,36,9.99,0.0,1019.16,90.0
2018-05-20 19:20,50.6304316666667,-96.98076,8.6,13.0,114,992.78,18.5,36,10.04,0.0,1019.05,90.0
2018-05-20 19:30,50.6304383333333,-96.9807633333333,9.2,13.6,108,992.80,18.4,37,10.19,0.0,1019.09,90.0
2018-05-20 19:40,50.6304383333333,-96.9807616666667,6.6,9.6,121,992.83,20.2,27,10.28,0.0,1019.03,90.0
2018-05-20 19:50,50.6304383333333,-96.9807616666667,5.6,8.8,93,992.69,19.7,33,10.32,0.0,1018.89,90.0
2018-05-20 20:00,50.6304416666667,-96.9807616666667,7.0,15.7,183,992.62,21.2,22,10.37,0.0,1018.73,90.0
2018-05-20 20:10,50.6304416666667,-96.9807616666667,7.5,11.3,153,992.48,21.0,27,10.38,0.0,1018.58,90.0
2018-05-20 20:20,50.6304416666667,-96.98076,4.8,13.1,140,992.34,21.1,24,10.49,0.0,1018.48,90.0
2018-05-20 20:30,50.6304416666667,-96.9807616666667,8.4,15.3,168,992.27,21.4,24,10.61,0.0,1018.41,90.0
2018-05-20 20:40,50.6304416666667,-96.9807616666667,9.8,19.1,215,992.27,23.1,17,10.62,0.0,1018.31,90.0
2018-05-20 20:50,50.6304416666667,-96.98076,10.3,15.6,232,992.23,24.5,15,10.70,0.0,1018.19,90.0
2018-05-20 21:00,50.6304416666667,-96.9807616666667,9.1,15.2,239,992.13,24.9,15,10.88,0.0,1018.03,48.3
2018-05-20 21:10,50.6304616666667,-96.9807783333333,9.1,13.7,225,992.10,24.6,14,11.07,0.0,1018.01,48.3
2018-05-20 21:20,50.6304466666667,-96.9807616666667,11.8,17.6,220,992.09,24.6,14,11.64,0.0,1018.01,48.3
2018-05-20 21:30,50.6304433333333,-96.9807566666667,8.2,13.6,246,991.99,25.1,14,11.99,0.0,1017.80,48.3
2018-05-20 21:40,50.6304416666667,-96.9807566666667,10.9,17.3,240,991.92,25.1,14,11.90,0.0,1017.75,48.3
2018-05-20 21:50,50.6304383333333,-96.980755,9.7,15.7,242,991.89,25.0,13,12.22,0.0,1017.67,48.3
2018-05-20 22:00,50.6304366666667,-96.9807566666667,10.1,16.0,237,991.84,24.9,13,12.33,0.0,1017.63,228.3
2018-05-20 22:10,50.6304216666667,-96.9807566666667,9.5,14.9,233,991.75,24.8,13,12.46,0.0,1017.53,228.3
2018-05-20 22:20,50.630435,-96.9807566666667,11.0,18.5,223,991.65,24.8,14,12.40,0.0,1017.42,228.3
2018-05-20 22:30,50.6304333333333,-96.980755,10.7,16.5,229,991.58,24.8,13,12.39,0.0,1017.27,228.3
2018-05-20 22:40,50.63043,-96.980755,8.9,15.3,231,991.56,24.9,13,12.52,0.0,1017.18,228.3
2018-05-20 22:50,50.6304316666667,-96.980775,8.3,13.1,242,991.46,25.0,13,12.59,0.0,1017.06,228.3
2018-05-20 23:00,50.6304383333333,-96.9807766666667,9.7,14.3,248,991.42,25.2,13,12.48,0.0,1017.02,270.0
2018-05-20 23:10,50.630435,-96.980765,8.5,12.7,256,991.37,25.1,13,12.50,0.0,1016.97,270.0
2018-05-20 23:20,50.6304316666667,-96.9807633333333,7.7,14.8,259,991.29,25.3,13,12.36,0.0,1016.86,270.0
2018-05-20 23:30,50.6304333333333,-96.98076,9.4,15.1,233,991.35,25.1,13,12.62,0.0,1016.93,270.0
2018-05-20 23:40,50.6304333333333,-96.98076,8.3,15.6,246,991.24,25.1,12,12.85,0.0,1016.83,270.0
2018-05-20 23:50,50.630445,-96.980765,7.9,11.4,249,991.10,25.3,12,12.55,0.0,1016.67,270.0
